CZ-6A DEB, 61096

Orbit data source: Space-Track

CZ-6A DEB, 61096 is space debris in LEO originally from a launch on Tue, 06 Aug 2024 UTC launched from the Taiyaun Space Center, China (TSC). Debris objects in space refer to the collection of defunct objects orbiting the Earth. Examples of debris include non-operational satellites, rocket bodies, and fragments generated from explosions, collisions, or faulty payload assembly.

Loading next visibility...
Identifier
61096, 2024-140NN
Orbit
LEO
Country
Flag of CNCN / PRC
Related business
Manufacturer
SAST
Mission
Spacecraft
Bus & Motor
Unknown
Mass
Unknown
Launch date (UTC)
2024-08-06 (1 year ago)
Launch vehicle
Unknown
Launch site
Taiyaun Space Center, China (TSC)
Object type
Payload
Rocket body
Debris
Shape & HBR
Unknown shape, 0.1 m
Radar Cross Section
Small (<0.1 m²)

Expand to show TLE details & history
Last TLE update: 7 hours ago

TLE from 7 hours ago
0 CZ-6A DEB
1 61096U 24140NN  25355.12959419  .00001859  00000-0  39365-3 0  9995
2 61096  89.0582 295.0961 0099976 159.2073 201.3250 14.55719713 69657
Epoch: 2025-12-21T03:06Z
TLE epoch observation values (Epoch: 2025-12-21T03:06:36.938Z)
Latitude
0.00003°
Longitude
158.49572°
Altitude
776.225 km
Speed
7.431 km/s
True Right ascension
19h 40m 23s
True Declination
0° 00' 00"
Sunlit
Object was in daylight at epoch
Visualization orbit readout
Latitude
Unknown
Longitude
Unknown
Altitude
Unknown
Speed
Unknown
Apparent Right ascension
Unknown
Apparent Declination
Unknown
Sunlit
N/A
Visualization observer readout
Local Sidereal Time
08:51:02
Azimuth
Unknown
Elevation
Unknown
Doppler factor
Unknown
Orbital elements
Apogee altitude
774.732 km
Perigee altitude
633.124 km
Semi-major axis
7,082.065 km
Eccentricity
0.01
Inclination
89.0582°
RAAN
295.0961°
Arg. of periapsis
159.2073°
True anomaly
200.91318°
Mean anomaly
201.325°
Eccentric anomaly
201.11861°
Mean motion
3.64169 °/min
Orbital period
98.86 mins
BSTAR
0.00039365
Loading maneuver chart data...
Computing Atmospheric mass density...
Loading historical data...
Loading historical data...
Loading historical data...
Loading historical data...
Loading historical data...
Loading historical data...
Loading historical data...

Documentation

Showing up to 5 results
|